{"data":{"norad_id":53194,"intl_designator":"2022-084F","name":"STARLINK-4382","alt_names":[],"object_type":"PAYLOAD","status":"ACTIVE","operator":null,"country":"US","launch_date":"2022-07-22","launch_site_code":"AFWTR","launch_vehicle":null,"mission":null,"orbit_class":"UNKNOWN","rcs_meters":null,"size_class":null,"mass_kg":null,"dimensions":null,"purposes":["comms"],"wikipedia_slug":null,"has_3d_model":false,"image_url":null,"decayed_at":null,"tle_current":{"epoch":"2026-09-20T02:06:10.675584Z","epoch_age_seconds":107896,"freshness":"FRESH","line1":"1 53194U 22084F   26263.08762356  .00000907  00000+0  30423-4 0  9995","line2":"2 53194  97.2838 318.8213 0001540  91.4807 268.6613 15.33436610228686","mean_motion":15.3343661,"eccentricity":0.000154,"inclination_deg":97.2838,"raan_deg":318.8213,"arg_perigee_deg":91.4807,"mean_anomaly_deg":268.6613,"bstar":3.0423e-5,"rev_number":22868,"period_min":93.906718452483,"perigee_km":464.51420673793,"apogee_km":466.62206792023,"semimajor_km":6843.7051373291,"source":"CELESTRAK","updated_at":"2026-09-20T09:00:40.189919Z"}}}